When you browse on this site, cookies collect data to enhance your experience and personalize the content and advertising you see.
Visit our Privacy Policy to learn more. By continuing to use the site, you agree to this use of cookies and data.
  • In Portugal
  • List of Countries
  • For 7 days
  • Water Temperature
  • Satellite Maps
  • Weather Map
  • Weather Widgets
  • user-avatar
    Login

    Hourly Weather Sligo

    Today, 26 March, Tuesday

    Time Temperature Precipitation Wind Pressure Humidity
    00:00 +4°C° 0 mm 2 mps 774 mmHg 93%
    01:00 +4°C° 0 mm 2 mps 774 mmHg 93%
    02:00 +4°C° 0 mm 2 mps 774 mmHg 94%
    03:00 +4°C° 0 mm 2 mps 774 mmHg 94%
    04:00 +3°C° 0 mm 2 mps 773 mmHg 95%
    05:00 +3°C° 0 mm 2 mps 773 mmHg 95%
    06:00 +4°C° 0 mm 3 mps 773 mmHg 92%
    07:00 +5°C° 0 mm 3 mps 773 mmHg 89%
    08:00 +8°C° 0 mm 3 mps 773 mmHg 85%
    09:00 +8°C° 0 mm 3 mps 773 mmHg 82%
    10:00 +8°C° 0 mm 4 mps 773 mmHg 80%
    11:00 +10°C° 0 mm 4 mps 773 mmHg 77%
    12:00 +10°C° 0 mm 4 mps 773 mmHg 77%
    13:00 +10°C° 0 mm 4 mps 773 mmHg 77%
    14:00 +10°C° 0 mm 3 mps 773 mmHg 77%
    15:00 +10°C° 0 mm 3 mps 773 mmHg 79%
    16:00 +9°C° 0 mm 3 mps 773 mmHg 81%
    17:00 +9°C° 0 mm 3 mps 773 mmHg 83%
    18:00 +8°C° 0 mm 3 mps 773 mmHg 84%
    19:00 +8°C° 0 mm 3 mps 773 mmHg 85%
    20:00 +7°C° 0 mm 3 mps 774 mmHg 86%
    21:00 +7°C° 0 mm 3 mps 774 mmHg 89%
    22:00 +5°C° 0 mm 3 mps 774 mmHg 91%
    23:00 +5°C° 0 mm 3 mps 774 mmHg 94%

    Tomorrow, 27 March, Wednesday

    Time Temperature Precipitation Wind Pressure Humidity
    00:00 +5°C° 0 mm 3 mps 773 mmHg 94%
    01:00 +5°C° 0 mm 3 mps 773 mmHg 94%
    02:00 +4°C° 0 mm 3 mps 773 mmHg 95%
    03:00 +5°C° 0 mm 3 mps 773 mmHg 93%
    04:00 +5°C° 0 mm 3 mps 773 mmHg 92%
    05:00 +7°C° 0 mm 3 mps 773 mmHg 90%
    06:00 +7°C° 0 mm 3 mps 774 mmHg 88%
    07:00 +7°C° 0 mm 4 mps 774 mmHg 85%
    08:00 +7°C° 0 mm 4 mps 774 mmHg 83%
    09:00 +8°C° 0 mm 4 mps 774 mmHg 82%
    10:00 +8°C° 0 mm 4 mps 774 mmHg 81%
    11:00 +10°C° 0 mm 4 mps 775 mmHg 80%
    12:00 +10°C° 0 mm 4 mps 775 mmHg 79%
    13:00 +10°C° 0 mm 4 mps 775 mmHg 79%
    14:00 +11°C° 0 mm 4 mps 775 mmHg 78%
    15:00 +10°C° 0 mm 4 mps 775 mmHg 80%
    16:00 +10°C° 0 mm 3 mps 775 mmHg 81%
    17:00 +9°C° 0 mm 3 mps 774 mmHg 83%
    18:00 +9°C° 0 mm 3 mps 775 mmHg 84%
    19:00 +9°C° 0 mm 3 mps 775 mmHg 84%
    20:00 +8°C° 0 mm 3 mps 775 mmHg 85%
    21:00 +7°C° 0 mm 2 mps 775 mmHg 88%
    22:00 +6°C° 0 mm 2 mps 775 mmHg 92%
    23:00 +5°C° 0 mm 2 mps 776 mmHg 95%

    Day after tomorrow, 28 March, Thursday

    Time Temperature Precipitation Wind Pressure Humidity
    00:00 +5°C° 0 mm 2 mps 775 mmHg 95%
    01:00 +5°C° 0 mm 2 mps 775 mmHg 96%
    02:00 +4°C° 0 mm 3 mps 775 mmHg 96%
    03:00 +5°C° 0 mm 2 mps 775 mmHg 96%
    04:00 +4°C° 0 mm 2 mps 775 mmHg 96%
    05:00 +4°C° 0 mm 2 mps 775 mmHg 96%
    06:00 +6°C° 0 mm 2 mps 775 mmHg 93%
    07:00 +7°C° 0 mm 3 mps 775 mmHg 89%
    08:00 +8°C° 0 mm 3 mps 775 mmHg 86%
    09:00 +10°C° 0 mm 3 mps 775 mmHg 82%
    10:00 +11°C° 0 mm 3 mps 775 mmHg 78%
    11:00 +12°C° 0 mm 4 mps 775 mmHg 74%
    12:00 +13°C° 0 mm 4 mps 774 mmHg 71%
    13:00 +14°C° 0 mm 4 mps 774 mmHg 68%
    14:00 +14°C° 0 mm 4 mps 773 mmHg 64%
    15:00 +13°C° 0 mm 4 mps 773 mmHg 67%
    16:00 +12°C° 0 mm 4 mps 772 mmHg 69%
    17:00 +11°C° 0 mm 4 mps 772 mmHg 72%
    18:00 +10°C° 0 mm 4 mps 772 mmHg 75%
    19:00 +7°C° 0 mm 4 mps 772 mmHg 79%
    20:00 +5°C° 0 mm 3 mps 772 mmHg 83%
    21:00 +5°C° 0 mm 3 mps 772 mmHg 85%
    22:00 +5°C° 0 mm 4 mps 771 mmHg 86%
    23:00 +4°C° 0 mm 4 mps 771 mmHg 88%

    29 March, Friday

    Time Temperature Precipitation Wind Pressure Humidity
    00:00 +4°C° 0 mm 4 mps 771 mmHg 89%
    01:00 +4°C° 0 mm 4 mps 770 mmHg 91%
    02:00 +4°C° 0 mm 4 mps 770 mmHg 92%
    03:00 +4°C° 0 mm 4 mps 770 mmHg 93%
    04:00 +4°C° 0 mm 4 mps 769 mmHg 93%
    05:00 +3°C° 0 mm 4 mps 769 mmHg 94%
    06:00 +5°C° 0 mm 4 mps 769 mmHg 90%
    07:00 +6°C° 0 mm 5 mps 769 mmHg 87%
    08:00 +8°C° 0 mm 5 mps 769 mmHg 83%
    09:00 +9°C° 0 mm 5 mps 769 mmHg 81%
    10:00 +10°C° 0 mm 5 mps 769 mmHg 78%
    11:00 +12°C° 0 mm 5 mps 769 mmHg 76%
    12:00 +12°C° 0 mm 5 mps 768 mmHg 77%
    13:00 +12°C° 0 mm 5 mps 768 mmHg 78%
    14:00 +10°C° 0 mm 5 mps 767 mmHg 79%
    15:00 +11°C° 0 mm 4 mps 767 mmHg 80%
    16:00 +11°C° 0 mm 3 mps 767 mmHg 82%
    17:00 +10°C° 0 mm 3 mps 767 mmHg 84%
    18:00 +9°C° 0 mm 2 mps 767 mmHg 88%
    19:00 +8°C° 0 mm 2 mps 767 mmHg 91%
    20:00 +7°C° 0 mm 2 mps 768 mmHg 95%
    21:00 +7°C° 0 mm 2 mps 768 mmHg 96%
    22:00 +7°C° 0 mm 2 mps 768 mmHg 96%
    23:00 +6°C° 0 mm 2 mps 768 mmHg 97%

    30 March, Saturday

    Time Temperature Precipitation Wind Pressure Humidity
    00:00 +6°C° 0 mm 2 mps 768 mmHg 97%
    01:00 +6°C° 0 mm 2 mps 767 mmHg 97%
    02:00 +6°C° 0 mm 2 mps 767 mmHg 97%
    03:00 +6°C° 0 mm 2 mps 767 mmHg 97%
    04:00 +7°C° 0 mm 2 mps 767 mmHg 97%
    05:00 +7°C° 0 mm 3 mps 767 mmHg 97%
    06:00 +7°C° 0 mm 3 mps 768 mmHg 94%
    07:00 +6°C° 0 mm 4 mps 768 mmHg 91%
    08:00 +6°C° 0 mm 5 mps 769 mmHg 88%
    09:00 +6°C° 0 mm 5 mps 769 mmHg 84%
    10:00 +7°C° 0 mm 5 mps 769 mmHg 79%
    11:00 +7°C° 0 mm 5 mps 770 mmHg 75%
    12:00 +7°C° 0 mm 5 mps 770 mmHg 70%
    13:00 +8°C° 0 mm 5 mps 770 mmHg 65%
    14:00 +8°C° 0 mm 6 mps 770 mmHg 61%
    15:00 +7°C° 0 mm 5 mps 771 mmHg 62%
    16:00 +7°C° 0 mm 5 mps 771 mmHg 62%
    17:00 +6°C° 0 mm 4 mps 771 mmHg 63%
    18:00 +5°C° 0 mm 4 mps 772 mmHg 68%
    19:00 +3°C° 0 mm 4 mps 772 mmHg 72%
    20:00 +1°C° 0 mm 4 mps 773 mmHg 76%
    21:00 +2°C° 0 mm 3 mps 773 mmHg 77%
    22:00 +1°C° 0 mm 3 mps 773 mmHg 78%
    23:00 +1°C° 0 mm 3 mps 773 mmHg 79%

    31 March, Sunday

    Time Temperature Precipitation Wind Pressure Humidity
    00:00 0°C° 0 mm 3 mps 773 mmHg 80%
    01:00 0°C° 0 mm 3 mps 773 mmHg 81%
    02:00 +1°C° 0 mm 2 mps 774 mmHg 81%
    03:00 +1°C° 0 mm 2 mps 774 mmHg 83%
    04:00 -1°C° 0 mm 2 mps 774 mmHg 84%
    05:00 -1°C° 0 mm 2 mps 774 mmHg 85%
    06:00 +2°C° 0 mm 2 mps 774 mmHg 79%
    07:00 +3°C° 0 mm 2 mps 775 mmHg 72%
    08:00 +5°C° 0 mm 2 mps 775 mmHg 65%
    09:00 +6°C° 0 mm 2 mps 775 mmHg 61%
    10:00 +7°C° 0 mm 2 mps 775 mmHg 56%
    11:00 +9°C° 0 mm 2 mps 775 mmHg 51%
    12:00 +10°C° 0 mm 1 mps 775 mmHg 52%
    13:00 +10°C° 0 mm 1 mps 774 mmHg 53%
    14:00 +10°C° 0 mm 1 mps 774 mmHg 54%
    15:00 +10°C° 0 mm 1 mps 774 mmHg 59%
    16:00 +9°C° 0 mm 1 mps 774 mmHg 63%
    17:00 +8°C° 0 mm 1 mps 773 mmHg 68%
    18:00 +8°C° 0 mm 1 mps 773 mmHg 70%
    19:00 +7°C° 0 mm 1 mps 773 mmHg 72%
    20:00 +6°C° 0 mm 1 mps 773 mmHg 74%
    21:00 +5°C° 0 mm 1 mps 773 mmHg 78%
    22:00 +5°C° 0 mm 1 mps 772 mmHg 82%
    23:00 +3°C° 0 mm 2 mps 772 mmHg 86%
    Show more